Washington, VA

2:54 AM EST on December 16, 2019 (GMT -0500)
Ronald Reagan Washington National

Weather History for KDCA - November, 2019

Change the Weather History Date:

Saturday, November 16, 2019

  Actual Average Record
Temperature  
Mean Temperature 42 °F 50 °F  
Max Temperature 47 °F 58 °F 76 °F (2001)
Min Temperature 37 °F 41 °F 19 °F (1933)
Degree Days  
Heating Degree Days 23 16  
Month to date heating degree days 307 211  
Since 1 July heating degree days 395 440  
Cooling Degree Days 0 0  
Month to date cooling degree days 0 0  
Year to date cooling degree days 2066 1547  
Moisture  
Dew Point 22 °F    
Average Humidity 49    
Maximum Humidity 70    
Minimum Humidity 28    
Precipitation  
Precipitation 0.00 in 0.10 in 2.17 in (1920)
Month to date precipitation 0.13 1.67  
Year to date precipitation 37.82 35.19  
Snow  
Snow 0.00 in 0.00 in T in (1995)
Month to date snowfall 0.0 0.2  
Since 1 July snowfall 0.0 0.2  
Snow Depth 0.00 in    
Sea Level Pressure  
Sea Level Pressure 30.35 in    
Wind  
Wind Speed 15 mph (NNE)    
Max Wind Speed 23 mph    
Max Gust Speed 29 mph    
Visibility 10 miles    
Events      
T = Trace of Precipitation, MM = Missing Value Source: NWS Daily Summary

Daily Weather History Graph

Daily Weather History Graph

Search for Another Location

Airport or City:

Astronomy

Nov. 16, 2019 Rise Set
Actual Time 6:51 AM EST 4:53 PM EST
Civil Twilight 6:23 AM EST 5:22 PM EST
Nautical Twilight 5:50 AM EST 5:54 PM EST
Astronomical Twilight 5:19 AM EST 6:26 PM EST
Moon 8:25 PM EST 10:42 AM EST
Length of Visible Light 10h 59m
Length of Day
10h 02m
Waning Gibbous, 82% of the Moon is Illuminated
Nov 16
Waning Gibbous
Nov 19
Last Quarter
Nov 26
New
Dec 4
First Quarter
Dec 12
Full

Hourly Weather History & Observations

Time (EST) Temp. Windchill Dew Point Humidity Pressure Visibility Wind Dir Wind Speed Gust Speed Precip Events Conditions
12:52 AM 42.1 °F 34.9 °F 27.0 °F 55% 30.25 in 10.0 mi North 13.8 mph - N/A   Partly Cloudy
1:52 AM 41.0 °F 33.1 °F 28.0 °F 60% 30.26 in 10.0 mi North 15.0 mph - N/A   Partly Cloudy
3:52 AM 37.9 °F 30.5 °F 28.0 °F 68% 30.28 in 10.0 mi North 11.5 mph - N/A   Scattered Clouds
4:52 AM 37.0 °F 28.5 °F 28.9 °F 73% 30.30 in 10.0 mi North 13.8 mph - N/A   Partly Cloudy
5:52 AM 37.9 °F 29.2 °F 28.0 °F 68% 30.33 in 10.0 mi North 15.0 mph - N/A   Clear
6:52 AM 37.0 °F 28.5 °F 27.0 °F 67% 30.35 in 10.0 mi North 13.8 mph - N/A   Partly Cloudy
7:52 AM 39.0 °F 29.9 °F 27.0 °F 62% 30.37 in 10.0 mi North 17.3 mph - N/A   Partly Cloudy
8:52 AM 41.0 °F 31.9 °F 27.0 °F 57% 30.37 in 10.0 mi NNE 19.6 mph - N/A   Partly Cloudy
9:52 AM 44.1 °F 37.4 °F 26.1 °F 49% 30.39 in 10.0 mi NE 13.8 mph - N/A   Partly Cloudy
10:52 AM 45.0 °F 38.2 °F 26.1 °F 48% 30.39 in 10.0 mi NE 15.0 mph - N/A   Scattered Clouds
11:52 AM 46.0 °F 38.8 °F 26.1 °F 46% 30.38 in 10.0 mi ENE 18.4 mph 26.5 mph N/A   Scattered Clouds
12:52 PM 46.0 °F 39.0 °F 21.0 °F 37% 30.35 in 10.0 mi NE 17.3 mph 25.3 mph N/A   Partly Cloudy
1:52 PM 46.9 °F - 17.1 °F 30% 30.34 in 10.0 mi NE 13.8 mph - N/A   Partly Cloudy
2:52 PM 46.0 °F 39.9 °F 15.1 °F 29% 30.35 in 10.0 mi NE 13.8 mph 23.0 mph N/A   Partly Cloudy
3:52 PM 44.1 °F 37.1 °F 16.0 °F 32% 30.35 in 10.0 mi NE 15.0 mph - N/A   Partly Cloudy
4:52 PM 42.1 °F 35.2 °F 16.0 °F 35% 30.37 in 10.0 mi NE 12.7 mph - N/A   Partly Cloudy
5:52 PM 39.9 °F 32.5 °F 15.1 °F 36% 30.38 in 10.0 mi NE 12.7 mph - N/A   Partly Cloudy
6:52 PM 39.9 °F 32.9 °F 14.0 °F 35% 30.38 in 10.0 mi NE 11.5 mph - N/A   Partly Cloudy
7:52 PM 39.9 °F 31.8 °F 17.1 °F 40% 30.37 in 10.0 mi NE 15.0 mph - N/A   Overcast
8:52 PM 39.0 °F 30.6 °F 19.0 °F 45% 30.36 in 10.0 mi NE 15.0 mph - N/A   Mostly Cloudy
9:52 PM 39.0 °F 31.0 °F 18.0 °F 43% 30.37 in 10.0 mi NNE 13.8 mph - N/A   Mostly Cloudy
10:52 PM 39.0 °F 30.6 °F 15.1 °F 38% 30.37 in 10.0 mi NNE 15.0 mph - N/A   Overcast
11:52 PM 39.0 °F 30.3 °F 14.0 °F 36% 30.35 in 10.0 mi NNE 16.1 mph - N/A   Overcast